GLG1638 SEQM-SEGU

Flight info

Callsign GLG1638
Flight time 0h 46m
Altitude 24000
Route TEMOX3A TEMOX
Aircraft A320/M-SDE3FGHIRWY/LB1

Departure

Time 2026-05-07 18:32
Airport Mariscal Sucre International Airport (SEQM)

Arrival

Time 2026-05-07 19:18
Airport José Joaquín de Olmedo International Airport (SEGU)
Time Latitude Longitude Altitude Speed Heading
2026-05-07 17:54 -0.12542 -78.35924 7843 ft 0 kts 266°
2026-05-07 18:20 -0.12542 -78.35918 7842 ft 3 kts 266°
2026-05-07 18:20 -0.12541 -78.35900 7839 ft 3 kts 266°
2026-05-07 18:20 -0.12540 -78.35883 7842 ft 3 kts 266°
2026-05-07 18:20 -0.12539 -78.35866 7842 ft 3 kts 266°
2026-05-07 18:21 -0.12540 -78.35849 7842 ft 2 kts 324°
2026-05-07 18:21 -0.12548 -78.35844 7835 ft 0 kts 358°
2026-05-07 18:23 -0.12528 -78.35844 7837 ft 7 kts 359°
2026-05-07 18:23 -0.12453 -78.35845 7842 ft 9 kts 359°
2026-05-07 18:23 -0.12398 -78.35840 7837 ft 7 kts 18°
2026-05-07 18:23 -0.12368 -78.35812 7837 ft 5 kts 64°
2026-05-07 18:24 -0.12364 -78.35786 7837 ft 3 kts 88°
2026-05-07 18:24 -0.12363 -78.35772 7838 ft 1 kts 87°
2026-05-07 18:24 -0.12363 -78.35769 7839 ft 0 kts 87°
2026-05-07 18:24 -0.12362 -78.35736 7840 ft 10 kts 89°
2026-05-07 18:25 -0.12361 -78.35643 7840 ft 17 kts 101°
2026-05-07 18:25 -0.12475 -78.35610 7849 ft 20 kts 180°
2026-05-07 18:25 -0.12621 -78.35608 7857 ft 22 kts 178°
2026-05-07 18:25 -0.12781 -78.35597 7865 ft 24 kts 179°
2026-05-07 18:26 -0.12957 -78.35593 7871 ft 26 kts 176°
2026-05-07 18:26 -0.13117 -78.35584 7879 ft 20 kts 178°
2026-05-07 18:26 -0.13243 -78.35579 7884 ft 16 kts 176°
2026-05-07 18:26 -0.13347 -78.35573 7885 ft 14 kts 180°
2026-05-07 18:27 -0.13442 -78.35572 7886 ft 13 kts 178°
2026-05-07 18:27 -0.13531 -78.35568 7889 ft 12 kts 176°
2026-05-07 18:27 -0.13588 -78.35549 7891 ft 7 kts 130°
2026-05-07 18:27 -0.13595 -78.35525 7892 ft 5 kts 93°
2026-05-07 18:28 -0.13581 -78.35497 7891 ft 3 kts 49°
2026-05-07 18:28 -0.13568 -78.35483 7891 ft 3 kts 44°
2026-05-07 18:28 -0.13553 -78.35473 7890 ft 2 kts 29°
2026-05-07 18:28 -0.13538 -78.35466 7890 ft 2 kts 24°
2026-05-07 18:29 -0.13526 -78.35461 7889 ft 2 kts 21°
2026-05-07 18:29 -0.13517 -78.35458 7889 ft 1 kts 19°
2026-05-07 18:29 -0.13512 -78.35456 7889 ft 1 kts 19°
2026-05-07 18:29 -0.13510 -78.35456 7889 ft 0 kts 19°
2026-05-07 18:30 -0.13498 -78.35452 7889 ft 9 kts 19°
2026-05-07 18:31 -0.13215 -78.35403 7883 ft 75 kts 357°
2026-05-07 18:31 -0.12489 -78.35440 7850 ft 132 kts 358°
2026-05-07 18:31 -0.11408 -78.35488 7819 ft 177 kts 357°
2026-05-07 18:31 -0.10130 -78.35541 8272 ft 185 kts 354°
2026-05-07 18:32 -0.08873 -78.35804 8946 ft 187 kts 345°
2026-05-07 18:32 -0.07647 -78.36248 9629 ft 187 kts 340°
2026-05-07 18:32 -0.06445 -78.36735 10216 ft 187 kts 342°
2026-05-07 18:32 -0.05241 -78.37174 10715 ft 182 kts 343°
2026-05-07 18:33 -0.04039 -78.37566 11061 ft 183 kts 345°
2026-05-07 18:33 -0.02824 -78.37957 11367 ft 188 kts 344°
2026-05-07 18:33 -0.01530 -78.38359 11618 ft 202 kts 343°
2026-05-07 18:33 -0.00151 -78.38799 11823 ft 215 kts 345°
2026-05-07 18:34 0.01315 -78.39264 11902 ft 226 kts 347°
2026-05-07 18:34 0.02869 -78.39758 12081 ft 244 kts 345°
2026-05-07 18:34 0.04533 -78.40297 12228 ft 260 kts 344°
2026-05-07 18:34 0.06330 -78.40881 12321 ft 284 kts 344°
2026-05-07 18:35 0.08281 -78.41507 12511 ft 304 kts 344°
2026-05-07 18:35 0.10247 -78.42294 13185 ft 305 kts 329°
2026-05-07 18:35 0.11748 -78.43764 13937 ft 305 kts 301°
2026-05-07 18:35 0.12571 -78.45712 14622 ft 306 kts 286°
2026-05-07 18:36 0.13085 -78.47784 15191 ft 310 kts 282°
2026-05-07 18:36 0.13548 -78.49902 15759 ft 314 kts 283°
2026-05-07 18:36 0.14071 -78.52031 16371 ft 317 kts 285°
2026-05-07 18:36 0.14676 -78.54156 16987 ft 319 kts 287°
2026-05-07 18:37 0.15217 -78.56314 17549 ft 323 kts 274°
2026-05-07 18:37 0.14910 -78.58517 18157 ft 323 kts 245°
2026-05-07 18:37 0.13722 -78.60404 18665 ft 322 kts 229°
2026-05-07 18:37 0.12198 -78.62051 19147 ft 323 kts 220°
2026-05-07 18:38 0.11074 -78.63029 19461 ft 325 kts 218°
2026-05-07 18:38 0.09322 -78.64465 19926 ft 327 kts 216°
2026-05-07 18:38 0.07497 -78.65846 20345 ft 332 kts 213°
2026-05-07 18:38 0.05561 -78.67181 20567 ft 345 kts 211°
2026-05-07 18:39 0.02813 -78.68905 20851 ft 359 kts 210°
2026-05-07 18:39 0.00664 -78.70249 21094 ft 370 kts 211°
2026-05-07 18:39 -0.01492 -78.71710 21393 ft 379 kts 213°
2026-05-07 18:39 -0.03647 -78.73283 21672 ft 388 kts 215°
2026-05-07 18:40 -0.05099 -78.74406 21880 ft 393 kts 217°
2026-05-07 18:40 -0.07268 -78.76136 22075 ft 404 kts 217°
2026-05-07 18:40 -0.09507 -78.77888 22272 ft 414 kts 216°
2026-05-07 18:40 -0.11818 -78.79651 22508 ft 422 kts 215°
2026-05-07 18:41 -0.14194 -78.81385 22924 ft 423 kts 213°
2026-05-07 18:41 -0.16583 -78.83040 23397 ft 424 kts 212°
2026-05-07 18:41 -0.19039 -78.84680 23811 ft 425 kts 212°
2026-05-07 18:41 -0.21504 -78.86333 24039 ft 427 kts 213°
2026-05-07 18:42 -0.23917 -78.87985 24068 ft 415 kts 213°
2026-05-07 18:42 -0.26251 -78.89651 24060 ft 411 kts 214°
2026-05-07 18:42 -0.28559 -78.91366 24058 ft 421 kts 216°
2026-05-07 18:42 -0.30915 -78.93188 24090 ft 433 kts 217°
2026-05-07 18:43 -0.33291 -78.95054 24083 ft 435 kts 216°
2026-05-07 18:43 -0.35702 -78.96884 24081 ft 436 kts 216°
2026-05-07 18:43 -0.38151 -78.98670 24042 ft 436 kts 214°
2026-05-07 18:43 -0.40631 -79.00415 24044 ft 436 kts 213°
2026-05-07 18:44 -0.43123 -79.02132 24048 ft 435 kts 213°
2026-05-07 18:44 -0.45627 -79.03835 24057 ft 436 kts 212°
2026-05-07 18:44 -0.48132 -79.05539 24057 ft 435 kts 213°
2026-05-07 18:44 -0.50624 -79.07246 24056 ft 435 kts 213°
2026-05-07 18:45 -0.53112 -79.08963 24053 ft 434 kts 213°
2026-05-07 18:45 -0.55593 -79.10685 24052 ft 435 kts 213°
2026-05-07 18:45 -0.58088 -79.12391 24047 ft 434 kts 210°
2026-05-07 18:45 -0.60751 -79.13780 24020 ft 432 kts 203°
2026-05-07 18:46 -0.63477 -79.15050 24014 ft 432 kts 203°
2026-05-07 18:46 -0.66198 -79.16318 24012 ft 432 kts 203°
2026-05-07 18:46 -0.68926 -79.17584 24014 ft 433 kts 203°
2026-05-07 18:46 -0.71660 -79.18853 24023 ft 433 kts 203°
2026-05-07 18:47 -0.74391 -79.20121 24023 ft 433 kts 203°
2026-05-07 18:47 -0.77117 -79.21389 24015 ft 432 kts 203°
2026-05-07 18:47 -0.79841 -79.22656 24019 ft 431 kts 203°
2026-05-07 18:47 -0.82560 -79.23920 24014 ft 431 kts 203°
2026-05-07 18:48 -0.85282 -79.25186 24014 ft 431 kts 203°
2026-05-07 18:48 -0.88001 -79.26450 24017 ft 431 kts 203°
2026-05-07 18:48 -0.90715 -79.27709 23910 ft 427 kts 203°
2026-05-07 18:48 -0.93389 -79.28950 23644 ft 421 kts 203°
2026-05-07 18:49 -0.96039 -79.30186 23400 ft 419 kts 203°
2026-05-07 18:49 -0.98676 -79.31415 23143 ft 417 kts 203°
2026-05-07 18:49 -1.01304 -79.32639 22882 ft 416 kts 203°
2026-05-07 18:49 -1.03904 -79.33848 22507 ft 409 kts 203°
2026-05-07 18:50 -1.06487 -79.35048 21739 ft 413 kts 203°
2026-05-07 18:50 -1.09091 -79.36258 21172 ft 411 kts 203°
2026-05-07 18:50 -1.11675 -79.37459 20648 ft 409 kts 203°
2026-05-07 18:50 -1.14245 -79.38652 20146 ft 406 kts 203°
2026-05-07 18:51 -1.16793 -79.39837 19655 ft 403 kts 204°
2026-05-07 18:51 -1.19330 -79.41017 19170 ft 401 kts 203°
2026-05-07 18:51 -1.21847 -79.42188 18700 ft 398 kts 204°
2026-05-07 18:51 -1.24356 -79.43356 18138 ft 397 kts 203°
2026-05-07 18:52 -1.26875 -79.44526 17363 ft 410 kts 203°
2026-05-07 18:52 -1.29505 -79.45745 16262 ft 421 kts 203°
2026-05-07 18:52 -1.32184 -79.46987 15402 ft 426 kts 203°
2026-05-07 18:52 -1.34835 -79.48219 15194 ft 412 kts 203°
2026-05-07 18:53 -1.37382 -79.49406 15071 ft 397 kts 203°
2026-05-07 18:53 -1.39844 -79.50556 14842 ft 386 kts 203°
2026-05-07 18:53 -1.42243 -79.51676 14612 ft 376 kts 203°
2026-05-07 18:53 -1.44594 -79.52771 14213 ft 371 kts 203°
2026-05-07 18:54 -1.46935 -79.53857 13735 ft 371 kts 203°
2026-05-07 18:54 -1.49278 -79.54943 13197 ft 371 kts 203°
2026-05-07 18:54 -1.51610 -79.56026 12698 ft 368 kts 203°
2026-05-07 18:54 -1.53923 -79.57099 12189 ft 365 kts 203°
2026-05-07 18:55 -1.56189 -79.58154 11665 ft 363 kts 204°
2026-05-07 18:55 -1.58500 -79.59230 11149 ft 360 kts 204°
2026-05-07 18:55 -1.60737 -79.60268 10652 ft 358 kts 204°
2026-05-07 18:55 -1.62987 -79.61312 10278 ft 352 kts 204°
2026-05-07 18:56 -1.65189 -79.62337 10164 ft 338 kts 204°
2026-05-07 18:56 -1.67253 -79.63299 10042 ft 326 kts 204°
2026-05-07 18:56 -1.69299 -79.64254 9914 ft 314 kts 204°
2026-05-07 18:56 -1.71237 -79.65156 9910 ft 303 kts 204°
2026-05-07 18:57 -1.73139 -79.66039 9643 ft 300 kts 204°
2026-05-07 18:57 -1.74998 -79.66901 8960 ft 298 kts 204°
2026-05-07 18:57 -1.76874 -79.67769 8321 ft 295 kts 204°
2026-05-07 18:57 -1.78718 -79.68626 7887 ft 291 kts 204°
2026-05-07 18:58 -1.80547 -79.69480 7603 ft 287 kts 205°
2026-05-07 18:58 -1.82349 -79.70321 7579 ft 287 kts 205°
2026-05-07 18:58 -1.84162 -79.71165 6995 ft 287 kts 205°
2026-05-07 18:58 -1.85971 -79.72004 6400 ft 284 kts 205°
2026-05-07 18:59 -1.87731 -79.72821 5966 ft 273 kts 205°
2026-05-07 18:59 -1.89400 -79.73597 5746 ft 254 kts 205°
2026-05-07 18:59 -1.90941 -79.74313 5631 ft 235 kts 205°
2026-05-07 18:59 -1.92412 -79.74997 5175 ft 235 kts 205°
2026-05-07 19:00 -1.93864 -79.75754 4738 ft 233 kts 210°
2026-05-07 19:00 -1.95240 -79.76547 4459 ft 225 kts 210°
2026-05-07 19:00 -1.96572 -79.77316 4171 ft 217 kts 210°
2026-05-07 19:00 -1.97863 -79.78060 3884 ft 211 kts 210°
2026-05-07 19:01 -1.99102 -79.78774 3636 ft 200 kts 210°
2026-05-07 19:01 -2.00280 -79.79451 3356 ft 191 kts 210°
2026-05-07 19:01 -2.01412 -79.80103 3096 ft 184 kts 210°
2026-05-07 19:01 -2.02511 -79.80736 2849 ft 182 kts 210°
2026-05-07 19:02 -2.03603 -79.81367 2612 ft 181 kts 210°
2026-05-07 19:02 -2.04692 -79.81995 2368 ft 180 kts 211°
2026-05-07 19:02 -2.05779 -79.82623 2120 ft 181 kts 210°
2026-05-07 19:02 -2.06866 -79.83249 1886 ft 179 kts 211°
2026-05-07 19:03 -2.07933 -79.83864 1650 ft 175 kts 211°
2026-05-07 19:03 -2.08972 -79.84460 1408 ft 170 kts 211°
2026-05-07 19:03 -2.09961 -79.85028 1229 ft 157 kts 210°
2026-05-07 19:03 -2.10892 -79.85562 1020 ft 152 kts 210°
2026-05-07 19:04 -2.11787 -79.86078 794 ft 152 kts 210°
2026-05-07 19:04 -2.12693 -79.86602 579 ft 150 kts 208°
2026-05-07 19:04 -2.13600 -79.87139 377 ft 153 kts 208°
2026-05-07 19:04 -2.14517 -79.87659 177 ft 151 kts 208°
2026-05-07 19:05 -2.15417 -79.88172 28 ft 141 kts 209°
2026-05-07 19:05 -2.16224 -79.88638 39 ft 145 kts 208°
2026-05-07 19:05 -2.17167 -79.89198 577 ft 164 kts 210°
2026-05-07 19:05 -2.18148 -79.89772 1453 ft 163 kts 210°
2026-05-07 19:06 -2.19136 -79.90340 2094 ft 170 kts 210°
2026-05-07 19:06 -2.21473 -79.91678 2601 ft 218 kts 210°
2026-05-07 19:06 -2.22825 -79.92453 3162 ft 232 kts 210°
2026-05-07 19:07 -2.24283 -79.93316 3588 ft 255 kts 216°
2026-05-07 19:07 -2.25425 -79.94700 3936 ft 265 kts 249°
2026-05-07 19:07 -2.25599 -79.96491 4002 ft 261 kts 284°
2026-05-07 19:07 -2.24699 -79.98034 4005 ft 262 kts 320°
2026-05-07 19:08 -2.23052 -79.98758 4006 ft 263 kts 356°
2026-05-07 19:08 -2.21283 -79.98379 4005 ft 265 kts 30°
2026-05-07 19:08 -2.19791 -79.97278 4006 ft 268 kts 38°
2026-05-07 19:08 -2.18324 -79.96130 4003 ft 268 kts 38°
2026-05-07 19:09 -2.16858 -79.94980 4002 ft 268 kts 37°
2026-05-07 19:09 -2.15388 -79.93831 4003 ft 268 kts 35°
2026-05-07 19:09 -2.13706 -79.93093 4003 ft 266 kts
2026-05-07 19:09 -2.11861 -79.93014 4003 ft 266 kts 358°
2026-05-07 19:10 -2.10025 -79.93165 4024 ft 265 kts 346°
2026-05-07 19:10 -2.08231 -79.93574 4020 ft 265 kts 356°
2026-05-07 19:10 -2.06389 -79.93463 4026 ft 266 kts
2026-05-07 19:10 -2.04551 -79.93216 4024 ft 266 kts
2026-05-07 19:11 -2.02733 -79.92878 4022 ft 267 kts 18°
2026-05-07 19:11 -2.01113 -79.91998 4022 ft 262 kts 33°
2026-05-07 19:11 -1.99647 -79.91026 4019 ft 244 kts 33°
2026-05-07 19:11 -1.98278 -79.90117 4021 ft 229 kts 32°
2026-05-07 19:12 -1.97069 -79.89167 4009 ft 215 kts 51°
2026-05-07 19:12 -1.96418 -79.87864 4025 ft 209 kts 78°
2026-05-07 19:12 -1.96434 -79.86421 4003 ft 210 kts 106°
2026-05-07 19:12 -1.97053 -79.85121 3867 ft 207 kts 121°
2026-05-07 19:13 -1.97786 -79.83879 3750 ft 207 kts 120°
2026-05-07 19:13 -1.98511 -79.82640 3629 ft 206 kts 120°
2026-05-07 19:13 -1.99226 -79.81419 3524 ft 198 kts 121°
2026-05-07 19:13 -2.00118 -79.80442 3357 ft 189 kts 152°
2026-05-07 19:14 -2.01372 -79.80220 3131 ft 185 kts 192°
2026-05-07 19:14 -2.02510 -79.80761 2898 ft 181 kts 213°
2026-05-07 19:14 -2.03591 -79.81410 2646 ft 181 kts 210°
2026-05-07 19:14 -2.04687 -79.82034 2387 ft 181 kts 210°
2026-05-07 19:15 -2.05787 -79.82656 2113 ft 182 kts 210°
2026-05-07 19:15 -2.06886 -79.83280 1859 ft 182 kts 211°
2026-05-07 19:15 -2.07967 -79.83897 1648 ft 174 kts 210°
2026-05-07 19:15 -2.08977 -79.84474 1410 ft 160 kts 210°
2026-05-07 19:16 -2.09918 -79.85012 1193 ft 151 kts 210°
2026-05-07 19:16 -2.10825 -79.85531 1000 ft 150 kts 210°
2026-05-07 19:16 -2.11728 -79.86050 762 ft 150 kts 210°
2026-05-07 19:16 -2.12634 -79.86570 570 ft 150 kts 209°
2026-05-07 19:17 -2.13535 -79.87094 395 ft 148 kts 209°
2026-05-07 19:17 -2.14427 -79.87618 191 ft 149 kts 208°
2026-05-07 19:17 -2.15317 -79.88120 29 ft 139 kts 209°
2026-05-07 19:17 -2.16043 -79.88541 24 ft 98 kts 210°
2026-05-07 19:18 -2.16428 -79.88759 23 ft 34 kts 210°
2026-05-07 19:18 -2.16632 -79.88879 22 ft 34 kts 210°
2026-05-07 19:18 -2.16692 -79.89000 23 ft 17 kts 332°
2026-05-07 19:18 -2.16585 -79.88961 22 ft 13 kts 31°